Location: Fazenda Monte Alegre
(4.8500°S, 38.0333°W)
Time: 16:17:05
(UTC+00:00)

Delta 7925 Rocket - Pass Details

Date: 24 September 2020
Orbit: 645 x 1648 km, 26.3° (Epoch: 25 October)

Event Time Altitude Azimuth Distance (km) Brightness Sun altitude
Rises 21:45:35 0° 283° (WNW) 2,944 7.9 -20.3°
Reaches altitude 10° 21:47:54 10° 277° (W) 2,068 6.9 -20.8°
Maximum altitude 21:52:26 44° 204° (SSW) 985 4.2 -22.0°
Enters shadow 21:54:44 28° 150° (SSE) 1,399 4.6 -22.5°
